Regional Weather Roundup
Issued by NWS

Current Version | Previous Version | Text Only | Print | Product List | Glossary On
Versions: 1 2 3 4 5 6 7 8 9 10 11 12 13 14 15 16 17 18 19 20 21 22 23 24 25 26 27 28 29 30 31 32 33 34 35 36 37 38 39 40 41 42 43 44 45 46 47 48 49 50
000
ASUS43 KLSX 010709
RWRMO

WEATHER ROUNDUP FOR MISSOURI
NATIONAL WEATHER SERVICE ST LOUIS MO
100 AM CST MON MAR 01 2021

NOTE: "FAIR" INDICATES FEW OR NO CLOUDS BELOW 12,000 FEET WITH NO
       SIGNIFICANT WEATHER AND/OR OBSTRUCTIONS TO VISIBILITY.
       CURRENT SKY AND/OR WEATHER CONDITIONS ARE NOT AVAILABLE FOR
       CHILLICOTHE AND FARMINGTON.

MOZ001>031-035>038-043-044-053-054-010800-
...NORTHERN AND WESTERN MISSOURI...

CITY           SKY/WX    TMP DP  RH WIND       PRES   REMARKS
KANSAS CTY INT CLEAR     25  24  96 NW6       30.22R WCI  18
KANSAS C DTWN  CLEAR     30  24  78 NW3       30.23R
LEE`S SUMMIT   CLEAR     29  23  78 NW5       30.22R
ST JOSEPH      CLEAR     24  21  88 SW3       30.23R
CHILLICOTHE      N/A     29  24  82 NW5       30.22R
KIRKSVILLE     CLEAR     28  24  85 NW9       30.18R WCI  19

$$
MOZ066>068-077>081-088>096-101>105-010800-
...SOUTHWEST MISSOURI...

CITY           SKY/WX    TMP DP  RH WIND       PRES   REMARKS
SPRINGFIELD    CLEAR     36  30  79 N13       30.16R WCI  27
JOPLIN         CLEAR     35  29  78 N9        30.21R WCI  28

$$
MOZ032>034-039>042-045>050-055>058-069>072-010800-
...CENTRAL MISSOURI...

CITY           SKY/WX    TMP DP  RH WIND       PRES   REMARKS
COLUMBIA       CLEAR     33  27  78 NW9       30.19R WCI  25
JEFFERSON CITY CLEAR     37  28  70 NW6       30.21R
ROLLA          CLEAR     35  30  82 NW9       30.17R WCI  28
SEDALIA        CLEAR     32  27  81 NW6       30.22R WCI  26
WHITEMAN AFB   CLEAR     29  25  84 NW3       30.18R
FT LEONARD WD  PTCLDY    35  31  83 NW9       30.17R WCI  28
OSAGE BEACH    CLEAR     35  30  82 N7        30.21R WCI  29

$$
MOZ051-052-059>065-010800-
...EAST CENTRAL MISSOURI...

CITY           SKY/WX    TMP DP  RH WIND       PRES   REMARKS
ST LOUIS INTL  PTCLDY    36  30  79 NW12G23   30.14R WCI  28
SPIRIT OF STL  PTCLDY    37  30  75 NW8       30.15R
ST CHARLES     CLEAR     37  29  72 NW9       30.15R

$$
MOZ072>076-082>087-097>100-106>115-010800-
...SOUTH CENTRAL AND SOUTHEAST MISSOURI...

CITY           SKY/WX    TMP DP  RH WIND       PRES   REMARKS
CAPE GIRARDEAU CLOUDY    46  37  71 N15       30.08R
FARMINGTON     MOCLDY    39  34  82 NW9       30.13R
POPLAR BLUFF   CLOUDY    47  36  65 N14       30.08R
WEST PLAINS    MOCLDY    40  32  73 N9        30.13R
$$



USA.gov is the U.S. government's official web portal to all federal, state and local government web resources and services.